Weather History for Beach, ND

Change the Weather History Date:

Saturday, January 5, 2013

  Actual Average (KGDV) Record (KGDV)
Temperature  
Mean Temperature 19 °F -  
Max Temperature 26 °F 22 °F 64 °F (2012)
Min Temperature 12 °F 6 °F -25 °F (2004)
Degree Days  
Heating Degree Days 46    
Moisture  
Dew Point 14 °F    
Average Humidity 80    
Maximum Humidity 86    
Minimum Humidity 69    
Precipitation  
Precipitation 0.00 in - - ()
Sea Level Pressure  
Sea Level Pressure 30.09 in    
Wind  
Wind Speed 14 mph (West)    
Max Wind Speed 24 mph    
Max Gust Speed 33 mph    
Visibility 10 miles    
Events      
Averages and records for this station are not official NWS values.
T = Trace of Precipitation, MM = Missing Value Source: NWS Daily Summary

Daily Weather History Graph

Daily Weather History Graph

Search for Another Location

Airport:

Trip Planner

Search our weather history database for the weather conditions in past years. The results will help you decide how hot, cold, wet, or windy it might be!

Date:

Astronomy

Jan. 05, 2013 Rise Set
Actual Time 7:41 AM MST 4:22 PM MST
Civil Twilight 7:06 AM MST 4:57 PM MST
Nautical Twilight 6:27 AM MST 5:35 PM MST
Astronomical Twilight 5:50 AM MST 6:12 PM MST
Moon 12:36 AM MST (1/5) 11:25 AM MST (1/5)
Length of Visible Light 9h 51m
Length of Day
8h 41m
Last Quarter, 43% of the Moon is Illuminated
Jan 5
Last Quarter
Jan 11
New
Jan 18
First Quarter
Jan 26
Full
Feb 3
Last Quarter

Hourly Weather History & Observations

Time (MST) Temp. Windchill Dew Point Humidity Pressure Visibility Wind Dir Wind Speed Gust Speed Precip Events Conditions
12:15 AM 26.6 °F 14.3 °F 19.4 °F 74% 29.95 in 10.0 mi West 16.1 mph - N/A   Clear
12:35 AM 26.6 °F 13.4 °F 19.4 °F 74% 29.95 in 10.0 mi West 18.4 mph - N/A   Clear
12:55 AM 24.8 °F 11.5 °F 19.4 °F 80% 29.95 in 10.0 mi West 17.3 mph - N/A   Clear
1:15 AM 26.6 °F 12.7 °F 19.4 °F 74% 29.95 in 10.0 mi West 20.7 mph - N/A   Clear
1:35 AM 24.8 °F 10.3 °F 19.4 °F 80% 29.96 in 10.0 mi WNW 20.7 mph 28.8 mph N/A   Clear
1:55 AM 24.8 °F 9.3 °F 17.6 °F 74% 29.96 in 10.0 mi WNW 24.2 mph 33.4 mph N/A   Clear
2:15 AM 23.0 °F 8.3 °F 17.6 °F 80% 29.98 in 10.0 mi WNW 19.6 mph - N/A   Partly Cloudy
2:35 AM 23.0 °F 7.2 °F 15.8 °F 74% 29.97 in 10.0 mi WNW 23.0 mph 28.8 mph N/A   Mostly Cloudy
2:55 AM 23.0 °F 6.9 °F 15.8 °F 74% 29.98 in 10.0 mi WNW 24.2 mph 31.1 mph N/A   Scattered Clouds
3:15 AM 19.4 °F - 15.8 °F 86% 29.99 in 10.0 mi North - - N/A   Partly Cloudy
3:35 AM 19.4 °F 2.1 °F 14.0 °F 80% 29.98 in 10.0 mi WNW 24.2 mph 31.1 mph N/A   Partly Cloudy
3:55 AM 17.6 °F -0.3 °F 12.2 °F 79% 29.99 in 10.0 mi WNW 24.2 mph 33.4 mph N/A   Clear
4:15 AM 15.8 °F -1.5 °F 12.2 °F 86% 30.01 in 10.0 mi NW 20.7 mph 29.9 mph N/A   Scattered Clouds
4:55 AM 15.8 °F -0.6 °F 10.4 °F 79% 30.03 in 10.0 mi NW 18.4 mph 25.3 mph N/A   Partly Cloudy
5:15 AM 14.0 °F -3.4 °F 10.4 °F 86% 30.04 in 10.0 mi NW 19.6 mph - N/A   Clear
5:35 AM 14.0 °F -3.0 °F 10.4 °F 86% 30.05 in 10.0 mi WNW 18.4 mph 23.0 mph N/A   Clear
5:55 AM 14.0 °F -2.0 °F 10.4 °F 86% 30.06 in 10.0 mi WNW 16.1 mph 23.0 mph N/A   Scattered Clouds
6:15 AM 12.2 °F -1.0 °F 8.6 °F 85% 30.07 in 10.0 mi WNW 10.4 mph - N/A   Overcast
6:35 AM 12.2 °F 1.7 °F 8.6 °F 85% 30.08 in 10.0 mi WNW 6.9 mph - N/A   Mostly Cloudy
6:55 AM 12.2 °F 1.7 °F 8.6 °F 85% 30.08 in 10.0 mi NW 6.9 mph - N/A   Partly Cloudy
7:15 AM 12.2 °F 6.1 °F 8.6 °F 85% 30.09 in 10.0 mi West 3.5 mph - N/A   Clear
7:35 AM 12.2 °F -0.2 °F 8.6 °F 85% 30.11 in 10.0 mi NW 9.2 mph - N/A   Clear
7:55 AM 12.2 °F -1.0 °F 8.6 °F 85% 30.13 in 10.0 mi NW 10.4 mph - N/A   Clear
8:15 AM 14.0 °F 2.0 °F 8.6 °F 79% 30.14 in 10.0 mi NW 9.2 mph - N/A   Clear
8:55 AM 15.8 °F 0.9 °F 10.4 °F 79% 30.15 in 10.0 mi NW 15.0 mph - N/A   Partly Cloudy
9:15 AM 15.8 °F 2.1 °F 12.2 °F 86% 30.15 in 10.0 mi NW 12.7 mph - N/A   Clear
10:15 AM 17.6 °F 7.3 °F 14.0 °F 86% 30.15 in 10.0 mi West 8.1 mph - N/A   Clear
10:35 AM 19.4 °F 10.4 °F 14.0 °F 80% 30.14 in 10.0 mi West 6.9 mph - N/A   Partly Cloudy
10:55 AM 19.4 °F 10.4 °F 14.0 °F 80% 30.14 in 10.0 mi West 6.9 mph - N/A   Partly Cloudy
11:15 AM 21.2 °F 13.6 °F 14.0 °F 74% 30.12 in 10.0 mi SW 5.8 mph - N/A   Partly Cloudy
11:35 AM 23.0 °F 11.7 °F 15.8 °F 74% 30.13 in 10.0 mi West 11.5 mph - N/A   Partly Cloudy
11:55 AM 23.0 °F 12.4 °F 15.8 °F 74% 30.13 in 10.0 mi West 10.4 mph - N/A   Partly Cloudy
12:15 PM 23.0 °F 13.1 °F 15.8 °F 74% 30.13 in 10.0 mi West 9.2 mph - N/A   Clear
12:35 PM 23.0 °F 10.6 °F 15.8 °F 74% 30.11 in 10.0 mi West 13.8 mph 18.4 mph N/A   Clear
12:55 PM 23.0 °F 11.7 °F 15.8 °F 74% 30.10 in 10.0 mi West 11.5 mph - N/A   Clear
1:15 PM 24.8 °F 14.0 °F 17.6 °F 74% 30.11 in 10.0 mi West 11.5 mph - N/A   Scattered Clouds
1:35 PM 24.8 °F 14.0 °F 17.6 °F 74% 30.09 in 10.0 mi West 11.5 mph - N/A   Partly Cloudy
1:55 PM 24.8 °F 13.4 °F 17.6 °F 74% 30.10 in 10.0 mi WNW 12.7 mph - N/A   Partly Cloudy
2:15 PM 26.6 °F 14.7 °F 17.6 °F 69% 30.11 in 10.0 mi West 15.0 mph - N/A   Partly Cloudy
2:35 PM 26.6 °F 16.2 °F 17.6 °F 69% 30.12 in 10.0 mi West 11.5 mph - N/A   Clear
2:55 PM 26.6 °F 16.2 °F 17.6 °F 69% 30.12 in 10.0 mi West 11.5 mph - N/A   Clear
3:15 PM 26.6 °F 17.5 °F 17.6 °F 69% 30.12 in 10.0 mi WNW 9.2 mph - N/A   Clear
3:55 PM 24.8 °F 14.0 °F 17.6 °F 74% 30.13 in 10.0 mi WNW 11.5 mph - N/A   Clear
4:15 PM 24.8 °F 14.0 °F 17.6 °F 74% 30.13 in 10.0 mi WNW 11.5 mph - N/A   Partly Cloudy
4:35 PM 23.0 °F 12.4 °F 17.6 °F 80% 30.13 in 10.0 mi West 10.4 mph - N/A   Partly Cloudy
4:55 PM 21.2 °F 10.1 °F 15.8 °F 80% 30.14 in 10.0 mi West 10.4 mph - N/A   Clear
5:15 PM 21.2 °F 10.9 °F 15.8 °F 80% 30.14 in 10.0 mi West 9.2 mph - N/A   Clear
5:35 PM 21.2 °F 9.5 °F 15.8 °F 80% 30.14 in 10.0 mi West 11.5 mph - N/A   Clear
5:55 PM 21.2 °F 10.9 °F 15.8 °F 80% 30.14 in 10.0 mi West 9.2 mph - N/A   Clear
6:15 PM 19.4 °F 7.2 °F 15.8 °F 86% 30.14 in 10.0 mi West 11.5 mph - N/A   Clear
6:35 PM 19.4 °F 6.6 °F 15.8 °F 86% 30.14 in 10.0 mi West 12.7 mph - N/A   Clear
6:55 PM 19.4 °F 7.2 °F 14.0 °F 80% 30.14 in 10.0 mi West 11.5 mph - N/A   Clear
7:15 PM 17.6 °F 5.0 °F 14.0 °F 86% 30.15 in 10.0 mi West 11.5 mph - N/A   Clear
7:35 PM 17.6 °F 5.7 °F 14.0 °F 86% 30.15 in 10.0 mi West 10.4 mph - N/A   Clear
7:55 PM 17.6 °F - 14.0 °F 86% 30.15 in 10.0 mi Calm Calm - N/A   Clear
8:15 PM 19.4 °F - 14.0 °F 80% 30.14 in 10.0 mi Calm Calm - N/A   Clear
8:35 PM 19.4 °F 9.5 °F 14.0 °F 80% 30.14 in 10.0 mi WSW 8.1 mph - N/A   Clear
8:55 PM 19.4 °F 11.5 °F 14.0 °F 80% 30.13 in 10.0 mi WSW 5.8 mph - N/A   Clear
9:15 PM 17.6 °F 9.3 °F 14.0 °F 86% 30.13 in 10.0 mi WSW 5.8 mph - N/A   Clear
9:35 PM 19.4 °F 9.5 °F 14.0 °F 80% 30.13 in 10.0 mi WSW 8.1 mph - N/A   Clear
9:55 PM 19.4 °F 6.6 °F 14.0 °F 80% 30.13 in 10.0 mi WSW 12.7 mph - N/A   Clear
10:15 PM 19.4 °F 7.9 °F 14.0 °F 80% 30.13 in 10.0 mi WSW 10.4 mph - N/A   Clear
10:35 PM 17.6 °F 4.3 °F 14.0 °F 86% 30.14 in 10.0 mi WSW 12.7 mph - N/A   Clear
10:55 PM 17.6 °F 8.2 °F 14.0 °F 86% 30.14 in 10.0 mi SW 6.9 mph - N/A   Clear
11:15 PM 14.0 °F - 10.4 °F 86% 30.13 in 10.0 mi Calm Calm - N/A   Clear
11:35 PM 14.0 °F - 10.4 °F 86% 30.13 in 10.0 mi Calm Calm - N/A   Clear
11:55 PM 14.0 °F 6.5 °F 10.4 °F 86% 30.12 in 10.0 mi South 4.6 mph - N/A   Clear